Time,TemperatureF,DewpointF,PressureIn,WindDirection,WindDirectionDegrees,WindSpeedMPH,WindSpeedGustMPH,Humidity,HourlyPrecipIn,Conditions,Clouds,dailyrainin,SolarRadiationWatts/m^2,SoftwareType,DateUTC
2013-03-01 00:22:00,26.0,20.0,-100.00,NW,307,2.0,7.0,78,0.00,,,0.00,0.000000,,2013-03-01 07:22:00,
2013-03-01 00:32:00,26.0,20.0,-100.00,NW,307,2.0,7.0,78,0.00,,,0.00,0.000000,,2013-03-01 07:32:00,
2013-03-01 00:42:00,26.0,20.0,-100.00,NW,307,2.0,7.0,78,0.00,,,0.00,0.000000,,2013-03-01 07:42:00,
2013-03-01 00:52:00,26.0,20.0,-100.00,NW,307,2.0,7.0,78,0.00,,,0.00,0.000000,,2013-03-01 07:52:00,
2013-03-01 01:22:00,27.0,21.0,-100.00,WNW,289,3.0,8.0,78,0.00,,,0.00,0.000000,,2013-03-01 08:22:00,
2013-03-01 01:32:00,27.0,21.0,-100.00,WNW,289,3.0,8.0,78,0.00,,,0.00,0.000000,,2013-03-01 08:32:00,
2013-03-01 01:42:00,27.0,21.0,-100.00,WNW,289,3.0,8.0,78,0.00,,,0.00,0.000000,,2013-03-01 08:42:00,
2013-03-01 01:52:00,27.0,21.0,-100.00,WNW,289,3.0,8.0,78,0.00,,,0.00,0.000000,,2013-03-01 08:52:00,
2013-03-01 02:12:00,25.0,21.0,-100.00,NE,34,0.0,7.0,86,0.00,,,0.00,0.000000,,2013-03-01 09:12:00,
2013-03-01 02:22:00,25.0,21.0,-100.00,NE,34,0.0,7.0,86,0.00,,,0.00,0.000000,,2013-03-01 09:22:00,
2013-03-01 02:32:00,25.0,21.0,-100.00,NE,34,0.0,7.0,86,0.00,,,0.00,0.000000,,2013-03-01 09:32:00,
2013-03-01 02:42:00,25.0,21.0,-100.00,NE,34,0.0,7.0,86,0.00,,,0.00,0.000000,,2013-03-01 09:42:00,
2013-03-01 02:52:00,25.0,21.0,-100.00,NE,34,0.0,7.0,86,0.00,,,0.00,0.000000,,2013-03-01 09:52:00,
2013-03-01 03:22:00,24.0,22.0,-100.00,WNW,298,2.0,4.0,90,0.00,,,0.00,0.000000,,2013-03-01 10:22:00,
2013-03-01 03:32:00,24.0,22.0,-100.00,WNW,298,2.0,4.0,90,0.00,,,0.00,0.000000,,2013-03-01 10:32:00,
2013-03-01 03:42:00,24.0,22.0,-100.00,WNW,298,2.0,4.0,90,0.00,,,0.00,0.000000,,2013-03-01 10:42:00,
2013-03-01 03:52:00,24.0,22.0,-100.00,WNW,298,2.0,4.0,90,0.00,,,0.00,0.000000,,2013-03-01 10:52:00,
2013-03-01 04:22:00,24.0,22.0,-100.00,West,277,3.0,6.0,90,0.00,,,0.00,0.000000,,2013-03-01 11:22:00,
2013-03-01 04:32:00,24.0,22.0,-100.00,West,277,3.0,6.0,90,0.00,,,0.00,0.000000,,2013-03-01 11:32:00,
2013-03-01 04:42:00,24.0,22.0,-100.00,West,277,3.0,6.0,90,0.00,,,0.00,0.000000,,2013-03-01 11:42:00,
2013-03-01 04:52:00,24.0,22.0,-100.00,West,277,3.0,6.0,90,0.00,,,0.00,0.000000,,2013-03-01 11:52:00,
2013-03-01 05:21:00,26.0,23.0,-100.00,WNW,290,4.0,9.0,87,0.00,,,0.00,0.000000,,2013-03-01 12:21:00,
2013-03-01 05:32:00,26.0,23.0,-100.00,WNW,290,4.0,9.0,87,0.00,,,0.00,0.000000,,2013-03-01 12:32:00,
2013-03-01 05:42:00,26.0,23.0,-100.00,WNW,290,4.0,9.0,87,0.00,,,0.00,0.000000,,2013-03-01 12:42:00,
2013-03-01 05:52:00,26.0,23.0,-100.00,WNW,290,4.0,9.0,87,0.00,,,0.00,0.000000,,2013-03-01 12:52:00,
2013-03-01 06:22:00,24.0,21.0,-100.00,NW,315,2.0,12.0,88,0.00,,,0.00,0.000000,,2013-03-01 13:22:00,
2013-03-01 06:32:00,24.0,21.0,-100.00,NW,315,2.0,12.0,88,0.00,,,0.00,0.000000,,2013-03-01 13:32:00,
2013-03-01 06:42:00,24.0,21.0,-100.00,NW,315,2.0,12.0,88,0.00,,,0.00,0.000000,,2013-03-01 13:42:00,
2013-03-01 06:52:00,24.0,21.0,-100.00,NW,315,2.0,12.0,88,0.00,,,0.00,0.000000,,2013-03-01 13:52:00,
2013-03-01 07:21:00,23.0,21.0,-100.00,West,267,2.0,4.0,91,0.00,,,0.00,7.000000,,2013-03-01 14:21:00,
2013-03-01 07:32:00,23.0,21.0,-100.00,West,267,2.0,4.0,91,0.00,,,0.00,7.000000,,2013-03-01 14:32:00,
2013-03-01 07:42:00,23.0,21.0,-100.00,West,267,2.0,4.0,91,0.00,,,0.00,7.000000,,2013-03-01 14:42:00,
2013-03-01 07:52:00,23.0,21.0,-100.00,West,267,2.0,4.0,91,0.00,,,0.00,7.000000,,2013-03-01 14:52:00,
2013-03-01 08:21:00,26.0,22.0,-100.00,South,189,3.0,6.0,85,0.00,,,0.00,77.000000,,2013-03-01 15:21:00,
2013-03-01 08:32:00,26.0,22.0,-100.00,South,189,3.0,6.0,85,0.00,,,0.00,77.000000,,2013-03-01 15:32:00,
2013-03-01 08:42:00,26.0,22.0,-100.00,South,189,3.0,6.0,85,0.00,,,0.00,77.000000,,2013-03-01 15:42:00,
2013-03-01 08:52:00,26.0,22.0,-100.00,South,189,3.0,6.0,85,0.00,,,0.00,77.000000,,2013-03-01 15:52:00,
2013-03-01 09:21:00,29.0,24.0,-100.00,SSE,159,3.0,5.0,81,0.00,,,0.00,235.000000,,2013-03-01 16:21:00,
2013-03-01 09:32:00,29.0,24.0,-100.00,SSE,159,3.0,5.0,81,0.00,,,0.00,235.000000,,2013-03-01 16:32:00,
2013-03-01 09:42:00,29.0,24.0,-100.00,SSE,159,3.0,5.0,81,0.00,,,0.00,235.000000,,2013-03-01 16:42:00,
2013-03-01 09:51:00,29.0,24.0,-100.00,SSE,159,3.0,5.0,81,0.00,,,0.00,235.000000,,2013-03-01 16:51:00,
2013-03-01 10:11:00,35.0,25.0,-100.00,WSW,241,3.0,7.0,67,0.00,,,0.00,361.000000,,2013-03-01 17:11:00,
2013-03-01 10:21:00,35.0,25.0,-100.00,WSW,241,3.0,7.0,67,0.00,,,0.00,361.000000,,2013-03-01 17:21:00,
2013-03-01 10:32:00,35.0,25.0,-100.00,WSW,241,3.0,7.0,67,0.00,,,0.00,361.000000,,2013-03-01 17:32:00,
2013-03-01 10:41:00,35.0,25.0,-100.00,WSW,241,3.0,7.0,67,0.00,,,0.00,361.000000,,2013-03-01 17:41:00,
2013-03-01 10:52:00,35.0,25.0,-100.00,WSW,241,3.0,7.0,67,0.00,,,0.00,361.000000,,2013-03-01 17:52:00,
2013-03-01 11:22:00,40.0,20.0,-100.00,NW,308,6.0,12.0,44,0.00,,,0.00,543.000000,,2013-03-01 18:22:00,
2013-03-01 11:32:00,40.0,20.0,-100.00,NW,308,6.0,12.0,44,0.00,,,0.00,543.000000,,2013-03-01 18:32:00,
2013-03-01 11:42:00,40.0,20.0,-100.00,NW,308,6.0,12.0,44,0.00,,,0.00,543.000000,,2013-03-01 18:42:00,
2013-03-01 11:52:00,40.0,20.0,-100.00,NW,308,6.0,12.0,44,0.00,,,0.00,543.000000,,2013-03-01 18:52:00,
2013-03-01 12:21:00,42.0,21.0,-100.00,West,278,6.0,17.0,43,0.00,,,0.00,670.000000,,2013-03-01 19:21:00,
2013-03-01 12:32:00,42.0,21.0,-100.00,West,278,6.0,17.0,43,0.00,,,0.00,670.000000,,2013-03-01 19:32:00,
2013-03-01 12:42:00,42.0,21.0,-100.00,West,278,6.0,17.0,43,0.00,,,0.00,670.000000,,2013-03-01 19:42:00,
2013-03-01 12:51:00,42.0,21.0,-100.00,West,278,6.0,17.0,43,0.00,,,0.00,670.000000,,2013-03-01 19:51:00,
2013-03-01 13:21:00,41.0,19.0,-100.00,WNW,298,8.0,19.0,40,0.00,,,0.00,508.000000,,2013-03-01 20:21:00,
2013-03-01 13:32:00,41.0,19.0,-100.00,WNW,298,8.0,19.0,40,0.00,,,0.00,508.000000,,2013-03-01 20:32:00,
2013-03-01 13:42:00,41.0,19.0,-100.00,WNW,298,8.0,19.0,40,0.00,,,0.00,508.000000,,2013-03-01 20:42:00,
2013-03-01 13:52:00,41.0,19.0,-100.00,WNW,298,8.0,19.0,40,0.00,,,0.00,508.000000,,2013-03-01 20:52:00,
2013-03-01 14:21:00,41.0,20.0,-100.00,WNW,290,8.0,20.0,43,0.00,,,0.00,290.000000,,2013-03-01 21:21:00,
2013-03-01 14:32:00,41.0,20.0,-100.00,WNW,290,8.0,20.0,43,0.00,,,0.00,290.000000,,2013-03-01 21:32:00,
2013-03-01 14:42:00,41.0,20.0,-100.00,WNW,290,8.0,20.0,43,0.00,,,0.00,290.000000,,2013-03-01 21:42:00,
2013-03-01 14:51:00,41.0,20.0,-100.00,WNW,290,8.0,20.0,43,0.00,,,0.00,290.000000,,2013-03-01 21:51:00,
2013-03-01 15:21:00,41.0,22.0,-100.00,WNW,292,7.0,24.0,47,0.00,,,0.00,294.000000,,2013-03-01 22:21:00,
2013-03-01 15:32:00,41.0,22.0,-100.00,WNW,292,7.0,24.0,47,0.00,,,0.00,294.000000,,2013-03-01 22:32:00,
2013-03-01 15:42:00,41.0,22.0,-100.00,WNW,292,7.0,24.0,47,0.00,,,0.00,294.000000,,2013-03-01 22:42:00,
2013-03-01 15:51:00,41.0,22.0,-100.00,WNW,292,7.0,24.0,47,0.00,,,0.00,294.000000,,2013-03-01 22:51:00,
2013-03-01 16:21:00,42.0,23.0,-100.00,WNW,292,7.0,21.0,46,0.00,,,0.00,148.000000,,2013-03-01 23:21:00,
2013-03-01 16:32:00,42.0,23.0,-100.00,WNW,292,7.0,21.0,46,0.00,,,0.00,148.000000,,2013-03-01 23:32:00,
2013-03-01 16:41:00,42.0,23.0,-100.00,WNW,292,7.0,21.0,46,0.00,,,0.00,148.000000,,2013-03-01 23:41:00,
2013-03-01 16:52:00,42.0,23.0,-100.00,WNW,292,7.0,21.0,46,0.00,,,0.00,148.000000,,2013-03-01 23:52:00,
2013-03-01 17:22:00,38.0,23.0,-100.00,WNW,292,6.0,16.0,55,0.00,,,0.00,79.000000,,2013-03-02 00:22:00,
2013-03-01 17:32:00,38.0,23.0,-100.00,WNW,292,6.0,16.0,55,0.00,,,0.00,79.000000,,2013-03-02 00:32:00,
2013-03-01 17:42:00,38.0,23.0,-100.00,WNW,292,6.0,16.0,55,0.00,,,0.00,79.000000,,2013-03-02 00:42:00,
2013-03-01 17:52:00,38.0,23.0,-100.00,WNW,292,6.0,16.0,55,0.00,,,0.00,79.000000,,2013-03-02 00:52:00,
2013-03-01 18:21:00,37.0,25.0,-100.00,NNW,333,2.0,12.0,61,0.00,,,0.00,19.000000,,2013-03-02 01:21:00,
2013-03-01 18:31:00,37.0,25.0,-100.00,NNW,333,2.0,12.0,61,0.00,,,0.00,19.000000,,2013-03-02 01:31:00,
2013-03-01 18:41:00,37.0,25.0,-100.00,NNW,333,2.0,12.0,61,0.00,,,0.00,19.000000,,2013-03-02 01:41:00,
2013-03-01 18:51:00,37.0,25.0,-100.00,NNW,333,2.0,12.0,61,0.00,,,0.00,19.000000,,2013-03-02 01:51:00,
2013-03-01 19:22:00,36.0,25.0,-100.00,NW,311,4.0,9.0,64,0.00,,,0.00,0.000000,,2013-03-02 02:22:00,
2013-03-01 19:32:00,36.0,25.0,-100.00,NW,311,4.0,9.0,64,0.00,,,0.00,0.000000,,2013-03-02 02:32:00,
2013-03-01 19:42:00,36.0,25.0,-100.00,NW,311,4.0,9.0,64,0.00,,,0.00,0.000000,,2013-03-02 02:42:00,
2013-03-01 19:52:00,36.0,25.0,-100.00,NW,311,4.0,9.0,64,0.00,,,0.00,0.000000,,2013-03-02 02:52:00,
2013-03-01 20:21:00,36.0,25.0,-100.00,NNW,329,3.0,6.0,65,0.00,,,0.00,0.000000,,2013-03-02 03:21:00,
2013-03-01 20:32:00,36.0,25.0,-100.00,NNW,329,3.0,6.0,65,0.00,,,0.00,0.000000,,2013-03-02 03:32:00,
2013-03-01 20:42:00,36.0,25.0,-100.00,NNW,329,3.0,6.0,65,0.00,,,0.00,0.000000,,2013-03-02 03:42:00,
2013-03-01 20:52:00,36.0,25.0,-100.00,NNW,329,3.0,6.0,65,0.00,,,0.00,0.000000,,2013-03-02 03:52:00,
2013-03-01 21:21:00,35.0,26.0,-100.00,NW,313,3.0,7.0,68,0.00,,,0.00,0.000000,,2013-03-02 04:21:00,
2013-03-01 21:32:00,35.0,26.0,-100.00,NW,313,3.0,7.0,68,0.00,,,0.00,0.000000,,2013-03-02 04:32:00,
2013-03-01 21:42:00,35.0,26.0,-100.00,NW,313,3.0,7.0,68,0.00,,,0.00,0.000000,,2013-03-02 04:42:00,
2013-03-01 21:52:00,35.0,26.0,-100.00,NW,313,3.0,7.0,68,0.00,,,0.00,0.000000,,2013-03-02 04:52:00,
2013-03-01 22:22:00,36.0,27.0,-100.00,NW,315,3.0,6.0,70,0.00,,,0.00,0.000000,,2013-03-02 05:22:00,
2013-03-01 22:32:00,36.0,27.0,-100.00,NW,315,3.0,6.0,70,0.00,,,0.00,0.000000,,2013-03-02 05:32:00,
2013-03-01 22:42:00,36.0,27.0,-100.00,NW,315,3.0,6.0,70,0.00,,,0.00,0.000000,,2013-03-02 05:42:00,
2013-03-01 22:52:00,36.0,27.0,-100.00,NW,315,3.0,6.0,70,0.00,,,0.00,0.000000,,2013-03-02 05:52:00,
2013-03-01 23:21:00,37.0,28.0,-100.00,NW,318,2.0,6.0,69,0.00,,,0.00,0.000000,,2013-03-02 06:21:00,
2013-03-01 23:32:00,37.0,28.0,-100.00,NW,318,2.0,6.0,69,0.00,,,0.00,0.000000,,2013-03-02 06:32:00,
2013-03-01 23:42:00,37.0,28.0,-100.00,NW,318,2.0,6.0,69,0.00,,,0.00,0.000000,,2013-03-02 06:42:00,
2013-03-01 23:51:00,37.0,28.0,-100.00,NW,318,2.0,6.0,69,0.00,,,0.00,0.000000,,2013-03-02 06:51:00,